Grass Valley, CA

11:55 PM PDT on October 16, 2017 (GMT -0700)
Grass Valley

Weather History for KGOO - October, 2012

Change the Weather History Date:

Friday, October 5, 2012

  Actual Average (KAUN) Record (KAUN)
Temperature  
Mean Temperature 62 °F -  
Max Temperature 68 °F 80 °F 98 °F (1980)
Min Temperature 55 °F 54 °F 43 °F (1954)
Degree Days  
Heating Degree Days 4    
Growing Degree Days 12 (Base 50)    
Moisture  
Dew Point 42 °F    
Average Humidity 49    
Maximum Humidity 72    
Minimum Humidity 32    
Precipitation  
Precipitation 0.00 in - - ()
Sea Level Pressure  
Sea Level Pressure 30.16 in    
Wind  
Wind Speed 3 mph ()    
Max Wind Speed 8 mph    
Max Gust Speed -    
Visibility 10.0 miles    
Events      
Averages and records for this station are not official NWS values.
T = Trace of Precipitation, MM = Missing Value Source: Averaged Metar Reports

Daily Weather History Graph

Daily Weather History Graph

Search for Another Location

Airport or City:

Trip Planner

Search our weather history database for the weather conditions in past years. The results will help you decide how hot, cold, wet, or windy it might be!

Date:

Astronomy

Oct. 05, 2012 Rise Set
Actual Time 7:04 AM PDT 6:39 PM PDT
Civil Twilight 6:37 AM PDT 7:06 PM PDT
Nautical Twilight 6:06 AM PDT 7:37 PM PDT
Astronomical Twilight 5:35 AM PDT 8:08 PM PDT
Moon 10:09 PM PDT (10/5) 12:14 PM PDT (10/5)
Length of Visible Light 12h 28m
Length of Day
11h 34m
Waning Gibbous, 73% of the Moon is Illuminated
Oct 5
Waning Gibbous
Oct 8
Last Quarter
Oct 15
New
Oct 21
First Quarter
Oct 29
Full

Hourly Weather History & Observations

Time (PDT) Temp. Dew Point Humidity Pressure Visibility Wind Dir Wind Speed Gust Speed Precip Events Conditions
12:15 AM 66.2 °F 37.4 °F 35% 30.16 in 10.0 mi ESE 6.9 mph - N/A   Clear
12:35 AM 66.2 °F 35.6 °F 32% 30.16 in 10.0 mi SE 4.6 mph - N/A   Clear
12:55 AM 66.2 °F 35.6 °F 32% 30.17 in 10.0 mi SE 3.5 mph - N/A   Clear
1:15 AM 64.4 °F 35.6 °F 34% 30.16 in 10.0 mi SE 3.5 mph - N/A   Clear
1:35 AM 62.6 °F 37.4 °F 39% 30.17 in 10.0 mi Calm Calm - N/A   Clear
1:55 AM 64.4 °F 35.6 °F 34% 30.17 in 10.0 mi ESE 3.5 mph - N/A   Clear
2:15 AM 62.6 °F 35.6 °F 37% 30.17 in 10.0 mi SE 4.6 mph - N/A   Clear
2:35 AM 62.6 °F 35.6 °F 37% 30.17 in 10.0 mi SE 3.5 mph - N/A   Clear
2:55 AM 62.6 °F 35.6 °F 37% 30.17 in 10.0 mi SE 5.8 mph - N/A   Clear
3:15 AM 62.6 °F 35.6 °F 37% 30.17 in 10.0 mi Calm Calm - N/A   Clear
3:35 AM 62.6 °F 35.6 °F 37% 30.17 in 10.0 mi SE 3.5 mph - N/A   Clear
3:55 AM 59.0 °F 35.6 °F 42% 30.16 in 10.0 mi SE 5.8 mph - N/A   Clear
4:15 AM 59.0 °F 35.6 °F 42% 30.17 in 10.0 mi SE 3.5 mph - N/A   Clear
4:35 AM 59.0 °F 35.6 °F 42% 30.17 in 10.0 mi Calm Calm - N/A   Clear
4:55 AM 59.0 °F 35.6 °F 42% 30.17 in 10.0 mi SSE 3.5 mph - N/A   Clear
5:15 AM 59.0 °F 37.4 °F 45% 30.17 in 10.0 mi SSE 5.8 mph - N/A   Clear
5:35 AM 57.2 °F 35.6 °F 44% 30.17 in 10.0 mi SE 4.6 mph - N/A   Clear
5:55 AM 59.0 °F 35.6 °F 42% 30.17 in 10.0 mi ESE 6.9 mph - N/A   Clear
6:15 AM 59.0 °F 35.6 °F 42% 30.17 in 10.0 mi SE 4.6 mph - N/A   Clear
6:35 AM 59.0 °F 37.4 °F 45% 30.18 in 10.0 mi SE 4.6 mph - N/A   Clear
6:55 AM 59.0 °F 35.6 °F 42% 30.18 in 10.0 mi ESE 6.9 mph - N/A   Clear
7:35 AM 59.0 °F 37.4 °F 45% 30.18 in 10.0 mi ESE 8.1 mph - N/A   Clear
7:55 AM 60.8 °F 37.4 °F 42% 30.18 in 10.0 mi SE 4.6 mph - N/A   Clear
8:15 AM 60.8 °F 37.4 °F 42% 30.18 in 10.0 mi SE 4.6 mph - N/A   Clear
8:35 AM 62.6 °F 37.4 °F 39% 30.18 in 10.0 mi SE 4.6 mph - N/A   Clear
8:55 AM 62.6 °F 37.4 °F 39% 30.19 in 10.0 mi ESE 4.6 mph - N/A   Clear
9:15 AM 62.6 °F 39.2 °F 42% 30.19 in 10.0 mi SE 5.8 mph - N/A   Partly Cloudy
9:35 AM 62.6 °F 39.2 °F 42% 30.19 in 10.0 mi SE 4.6 mph - N/A   Clear
9:55 AM 62.6 °F 39.2 °F 42% 30.19 in 10.0 mi SE 8.1 mph - N/A   Partly Cloudy
10:15 AM 64.4 °F 37.4 °F 37% 30.19 in 10.0 mi SSE 8.1 mph - N/A   Scattered Clouds
10:35 AM 62.6 °F 39.2 °F 42% 30.19 in 10.0 mi SE 5.8 mph - N/A   Partly Cloudy
10:55 AM 64.4 °F 39.2 °F 40% 30.19 in 10.0 mi SSE 3.5 mph - N/A   Clear
11:15 AM 64.4 °F 41.0 °F 42% 30.19 in 10.0 mi SSE 5.8 mph - N/A   Partly Cloudy
11:35 AM 66.2 °F 42.8 °F 43% 30.19 in 10.0 mi Calm Calm - N/A   Clear
11:55 AM 68.0 °F 44.6 °F 43% 30.18 in 10.0 mi SE 8.1 mph - N/A   Clear
12:15 PM 66.2 °F 44.6 °F 46% 30.18 in 10.0 mi SSW 4.6 mph - N/A   Partly Cloudy
12:35 PM 68.0 °F 42.8 °F 40% 30.18 in 10.0 mi Calm Calm - N/A   Clear
12:55 PM 68.0 °F 44.6 °F 43% 30.18 in 10.0 mi SSE 4.6 mph - N/A   Clear
1:15 PM 66.2 °F 46.4 °F 49% 30.17 in 10.0 mi SSW 3.5 mph - N/A   Clear
1:35 PM 68.0 °F 46.4 °F 46% 30.17 in 10.0 mi SSW 5.8 mph - N/A   Clear
1:55 PM 68.0 °F 46.4 °F 46% 30.16 in 10.0 mi SSW 4.6 mph - N/A   Partly Cloudy
2:15 PM 66.2 °F 46.4 °F 49% 30.16 in 10.0 mi SSW 5.8 mph - N/A   Partly Cloudy
2:35 PM 68.0 °F 46.4 °F 46% 30.16 in 10.0 mi SW 5.8 mph - N/A   Scattered Clouds
2:55 PM 66.2 °F 46.4 °F 49% 30.15 in 10.0 mi SSW 8.1 mph - N/A   Partly Cloudy
3:15 PM 66.2 °F 46.4 °F 49% 30.15 in 10.0 mi SSW 5.8 mph - N/A   Scattered Clouds
3:35 PM 68.0 °F 46.4 °F 46% 30.15 in 10.0 mi SSW 4.6 mph - N/A   Partly Cloudy
3:55 PM 68.0 °F 46.4 °F 46% 30.15 in 10.0 mi South 4.6 mph - N/A   Partly Cloudy
4:15 PM 68.0 °F 46.4 °F 46% 30.14 in 10.0 mi South 4.6 mph - N/A   Clear
4:35 PM 66.2 °F 46.4 °F 49% 30.14 in 10.0 mi SSW 3.5 mph - N/A   Clear
4:55 PM 66.2 °F 46.4 °F 49% 30.14 in 10.0 mi Calm Calm - N/A   Clear
5:15 PM 66.2 °F 46.4 °F 49% 30.14 in 10.0 mi Calm Calm - N/A   Clear
5:35 PM 64.4 °F 46.4 °F 52% 30.14 in 10.0 mi Calm Calm - N/A   Clear
5:55 PM 62.6 °F 46.4 °F 55% 30.14 in 10.0 mi Calm Calm - N/A   Clear
6:15 PM 62.6 °F 46.4 °F 55% 30.14 in 10.0 mi Calm Calm - N/A   Clear
6:35 PM 62.6 °F 46.4 °F 55% 30.14 in 10.0 mi Calm Calm - N/A   Clear
6:55 PM 59.0 °F 46.4 °F 63% 30.14 in 10.0 mi Calm Calm - N/A   Clear
7:15 PM 59.0 °F 46.4 °F 63% 30.14 in 10.0 mi Calm Calm - N/A   Clear
7:35 PM 59.0 °F 46.4 °F 63% 30.13 in 10.0 mi Calm Calm - N/A   Clear
7:55 PM 57.2 °F 46.4 °F 67% 30.13 in 10.0 mi Calm Calm - N/A   Clear
8:15 PM 57.2 °F 46.4 °F 67% 30.14 in 10.0 mi Calm Calm - N/A   Clear
8:35 PM 57.2 °F 46.4 °F 67% 30.13 in 10.0 mi Calm Calm - N/A   Clear
8:55 PM 57.2 °F 46.4 °F 67% 30.13 in 10.0 mi Calm Calm - N/A   Clear
9:15 PM 55.4 °F 46.4 °F 72% 30.13 in 10.0 mi Calm Calm - N/A   Clear
9:35 PM 55.4 °F 46.4 °F 72% 30.13 in 10.0 mi Calm Calm - N/A   Clear
9:55 PM 55.4 °F 46.4 °F 72% 30.13 in 10.0 mi Calm Calm - N/A   Clear
10:15 PM 55.4 °F 46.4 °F 72% 30.13 in 10.0 mi Calm Calm - N/A   Clear
10:35 PM 55.4 °F 46.4 °F 72% 30.13 in 10.0 mi Calm Calm - N/A   Clear
10:55 PM 55.4 °F 46.4 °F 72% 30.13 in 10.0 mi Calm Calm - N/A   Clear
11:15 PM 55.4 °F 46.4 °F 72% 30.13 in 10.0 mi Calm Calm - N/A   Clear
11:35 PM 55.4 °F 46.4 °F 72% 30.13 in 10.0 mi Calm Calm - N/A   Clear
11:55 PM 55.4 °F 46.4 °F 72% 30.13 in 10.0 mi Calm Calm - N/A   Clear